datetime,flow volume
2005-01-01,89.2562
2005-01-02,79.33884
2005-01-03,77.35537
2005-01-04,85.28926
2005-01-05,75.3719
2005-01-06,73.38843
2005-01-07,61.4876
2005-01-08,79.33884
2005-01-09,75.3719
2005-01-10,83.30579
2005-01-11,99.17355
2005-01-12,83.30579
2005-01-13,53.55372
2005-01-14,47.60331
2005-01-15,45.61983
2005-01-16,51.57025
2005-01-17,59.50413
2005-01-18,61.4876
2005-01-19,61.4876
2005-01-20,63.47107
2005-01-21,61.4876
2005-01-22,59.50413
2005-01-23,55.53719
2005-01-24,57.52066
2005-01-25,61.4876
2005-01-26,59.50413
2005-01-27,67.43802
2005-01-28,65.45455
2005-01-29,59.50413
2005-01-30,69.42149
2005-01-31,55.53719
2005-02-01,63.47107
2005-02-02,53.55372
2005-02-03,51.57025
2005-02-04,55.53719
2005-02-05,69.42149
2005-02-06,69.42149
2005-02-07,63.47107
2005-02-08,63.47107
2005-02-09,53.55372
2005-02-10,61.4876
2005-02-11,67.43802
2005-02-12,91.23967
2005-02-13,117.02479
2005-02-14,105.12397
2005-02-15,99.17355
2005-02-16,103.1405
2005-02-17,99.17355
2005-02-18,95.20661
2005-02-19,105.12397
2005-02-20,111.07438
2005-02-21,97.19008
2005-02-22,91.23967
2005-02-23,95.20661
2005-02-24,91.23967
2005-02-25,83.30579
2005-02-26,79.33884
2005-02-27,77.35537
2005-02-28,75.3719
2005-03-01,75.3719
2005-03-02,77.35537
2005-03-03,73.38843
2005-03-04,67.43802
2005-03-05,75.3719
2005-03-06,79.33884
2005-03-07,75.3719
2005-03-08,77.35537
2005-03-09,77.35537
2005-03-10,89.2562
2005-03-11,99.17355
2005-03-12,113.05785
2005-03-13,128.92562
2005-03-14,120.99174
2005-03-15,85.28926
2005-03-16,97.19008
2005-03-17,119.00826
2005-03-18,109.09091
2005-03-19,113.05785
2005-03-20,128.92562
2005-03-21,122.97521
2005-03-22,122.97521
2005-03-23,124.95868
2005-03-24,124.95868
2005-03-25,126.94215
2005-03-26,126.94215
2005-03-27,128.92562
2005-03-28,128.92562
2005-03-29,144.79339
2005-03-30,132.89256
2005-03-31,115.04132
2005-04-01,109.09091
2005-04-02,128.92562
2005-04-03,150.7438
2005-04-04,184.46281
2005-04-05,222.14876
2005-04-06,206.28099
2005-04-07,232.06612
2005-04-08,329.2562
2005-04-09,374.87603
2005-04-10,378.84298
2005-04-11,323.30579
2005-04-12,277.68595
2005-04-13,299.50413
2005-04-14,420.49587
2005-04-15,593.05785
2005-04-16,658.5124
2005-04-17,969.91736
2005-04-18,1088.92562
2005-04-19,1124.6281
2005-04-20,1059.17355
2005-04-21,1007.60331
2005-04-22,900.49587
2005-04-23,896.52893
2005-04-24,1088.92562
2005-04-25,1053.22314
2005-04-26,1118.67769
2005-04-27,1134.54545
2005-04-28,1051.23967
2005-04-29,918.34711
2005-04-30,765.61983
2005-05-01,672.39669
2005-05-02,708.09917
2005-05-03,710.08264
2005-05-04,775.53719
2005-05-05,807.27273
2005-05-06,842.97521
2005-05-07,1037.35537
2005-05-08,1049.2562
2005-05-09,1055.20661
2005-05-10,1182.14876
2005-05-11,1364.6281
2005-05-12,1348.76033
2005-05-13,1267.43802
2005-05-14,1241.65289
2005-05-15,1146.44628
2005-05-16,1170.24793
2005-05-17,1396.36364
2005-05-18,1336.8595
2005-05-19,1279.33884
2005-05-20,1297.19008
2005-05-21,1592.72727
2005-05-22,1685.95041
2005-05-23,1864.46281
2005-05-24,1900.16529
2005-05-25,1852.56198
2005-05-26,1707.7686
2005-05-27,1656.19835
2005-05-28,1560.99174
2005-05-29,1424.13223
2005-05-30,1313.05785
2005-05-31,1255.53719
2005-06-01,1112.72727
2005-06-02,995.70248
2005-06-03,926.28099
2005-06-04,844.95868
2005-06-05,773.55372
2005-06-06,702.14876
2005-06-07,646.61157
2005-06-08,624.79339
2005-06-09,606.94215
2005-06-10,591.07438
2005-06-11,547.43802
2005-06-12,608.92562
2005-06-13,521.65289
2005-06-14,438.34711
2005-06-15,422.47934
2005-06-16,422.47934
2005-06-17,402.64463
2005-06-18,376.8595
2005-06-19,347.10744
2005-06-20,309.42149
2005-06-21,301.4876
2005-06-22,355.04132
2005-06-23,295.53719
2005-06-24,257.85124
2005-06-25,247.93388
2005-06-26,285.61983
2005-06-27,249.91736
2005-06-28,238.01653
2005-06-29,230.08264
2005-06-30,220.16529
2005-07-01,93.22314
2005-07-02,91.23967
2005-07-03,87.27273
2005-07-04,83.30579
2005-07-05,83.30579
2005-07-06,85.28926
2005-07-07,79.33884
2005-07-08,67.43802
2005-07-09,63.47107
2005-07-10,61.4876
2005-07-11,59.50413
2005-07-12,53.55372
2005-07-13,53.55372
2005-07-14,51.57025
2005-07-15,45.61983
2005-07-16,41.65289
2005-07-17,41.65289
2005-07-18,39.66942
2005-07-19,39.66942
2005-07-20,37.68595
2005-07-21,39.66942
2005-07-22,41.65289
2005-07-23,47.60331
2005-07-24,53.55372
2005-07-25,49.58678
2005-07-26,55.53719
2005-07-27,51.57025
2005-07-28,47.60331
2005-07-29,45.61983
2005-07-30,41.65289
2005-07-31,37.68595
2005-08-01,31.73554
2005-08-02,29.75207
2005-08-03,29.75207
2005-08-04,29.75207
2005-08-05,69.42149
2005-08-06,73.38843
2005-08-07,63.47107
2005-08-08,51.57025
2005-08-09,43.63636
2005-08-10,35.70248
2005-08-11,35.70248
2005-08-12,109.09091
2005-08-13,146.77686
2005-08-14,158.67769
2005-08-15,134.87603000000001
2005-08-16,126.94215
2005-08-17,113.05785
2005-08-18,97.19008
2005-08-19,87.27273
2005-08-20,83.30579
2005-08-21,71.40496
2005-08-22,61.4876
2005-08-23,53.55372
2005-08-24,55.53719
2005-08-25,45.61983
2005-08-26,41.65289
2005-08-27,37.68595
2005-08-28,37.68595
2005-08-29,41.65289
2005-08-30,35.70248
2005-08-31,33.71901
2005-09-01,35.70248
2005-09-02,37.68595
2005-09-03,43.63636
2005-09-04,39.66942
2005-09-05,37.68595
2005-09-06,35.70248
2005-09-07,41.65289
2005-09-08,45.61983
2005-09-09,51.57025
2005-09-10,49.58678
2005-09-11,43.63636
2005-09-12,41.65289
2005-09-13,37.68595
2005-09-14,33.71901
2005-09-15,33.71901
2005-09-16,35.70248
2005-09-17,33.71901
2005-09-18,33.71901
2005-09-19,35.70248
2005-09-20,35.70248
2005-09-21,31.73554
2005-09-22,33.71901
2005-09-23,41.65289
2005-09-24,41.65289
2005-09-25,37.68595
2005-09-26,35.70248
2005-09-27,31.73554
2005-09-28,117.02479
2005-09-29,416.52893
2005-09-30,311.40496
2005-10-01,166.61157
2005-10-02,148.76033
2005-10-03,113.05785
2005-10-04,103.1405
2005-10-05,97.19008
2005-10-06,93.22314
2005-10-07,99.17355
2005-10-08,87.27273
2005-10-09,148.76033
2005-10-10,158.67769
2005-10-11,162.64463
2005-10-12,160.66116
2005-10-13,148.76033
2005-10-14,144.79339
2005-10-15,144.79339
2005-10-16,156.69421
2005-10-17,152.72727
2005-10-18,150.7438
2005-10-19,243.96694
2005-10-20,182.47934
2005-10-21,170.57851
2005-10-22,168.59504
2005-10-23,168.59504
2005-10-24,168.59504
2005-10-25,170.57851
2005-10-26,166.61157
2005-10-27,166.61157
2005-10-28,154.71074
2005-10-29,154.71074
2005-10-30,148.76033
2005-10-31,130.90909
2005-11-01,115.04132
2005-11-02,109.09091
2005-11-03,107.10744
2005-11-04,105.12397
2005-11-05,97.19008
2005-11-06,91.23967
2005-11-07,91.23967
2005-11-08,93.22314
2005-11-09,91.23967
2005-11-10,91.23967
2005-11-11,93.22314
2005-11-12,95.20661
2005-11-13,95.20661
2005-11-14,97.19008
2005-11-15,95.20661
2005-11-16,79.33884
2005-11-17,101.15702
2005-11-18,105.12397
2005-11-19,99.17355
2005-11-20,87.27273
2005-11-21,91.23967
2005-11-22,91.23967
2005-11-23,87.27273
2005-11-24,91.23967
2005-11-25,85.28926
2005-11-26,83.30579
2005-11-27,103.1405
2005-11-28,57.52066
2005-11-29,41.65289
2005-11-30,97.19008
2005-12-01,99.17355
2005-12-02,109.09091
2005-12-03,107.10744
2005-12-04,79.33884
2005-12-05,45.61983
2005-12-06,45.61983
2005-12-07,43.63636
2005-12-08,39.66942
2005-12-09,47.60331
2005-12-10,65.45455
2005-12-11,67.43802
2005-12-12,77.35537
2005-12-13,91.23967
2005-12-14,75.3719
2005-12-15,51.57025
2005-12-16,59.50413
2005-12-17,59.50413
2005-12-18,63.47107
2005-12-19,71.40496
2005-12-20,73.38843
2005-12-21,73.38843
2005-12-22,75.3719
2005-12-23,77.35537
2005-12-24,73.38843
2005-12-25,75.3719
2005-12-26,75.3719
2005-12-27,81.32231
2005-12-28,71.40496
2005-12-29,81.32231
2005-12-30,69.42149
2005-12-31,75.3719
2006-01-01,77.35537
2006-01-02,71.40496
2006-01-03,75.3719
2006-01-04,67.43802
2006-01-05,59.50413
2006-01-06,63.47107
2006-01-07,69.42149
2006-01-08,69.42149
2006-01-09,63.47107
2006-01-10,37.68595
2006-01-11,45.61983
2006-01-12,55.53719
2006-01-13,49.58678
2006-01-14,57.52066
2006-01-15,67.43802
2006-01-16,61.4876
2006-01-17,45.61983
2006-01-18,49.58678
2006-01-19,67.43802
2006-01-20,63.47107
2006-01-21,41.65289
2006-01-22,49.58678
2006-01-23,51.57025
2006-01-24,51.57025
2006-01-25,57.52066
2006-01-26,67.43802
2006-01-27,55.53719
2006-01-28,65.45455
2006-01-29,53.55372
2006-01-30,53.55372
2006-01-31,57.52066
2006-02-01,57.52066
2006-02-02,59.50413
2006-02-03,55.53719
2006-02-04,45.61983
2006-02-05,55.53719
2006-02-06,43.63636
2006-02-07,47.60331
2006-02-08,55.53719
2006-02-09,57.52066
2006-02-10,53.55372
2006-02-11,35.70248
2006-02-12,39.66942
2006-02-13,57.52066
2006-02-14,59.50413
2006-02-15,65.45455
2006-02-16,57.52066
2006-02-17,49.58678
2006-02-18,59.50413
2006-02-19,57.52066
2006-02-20,51.57025
2006-02-21,49.58678
2006-02-22,49.58678
2006-02-23,49.58678
2006-02-24,49.58678
2006-02-25,51.57025
2006-02-26,51.57025
2006-02-27,53.55372
2006-02-28,55.53719
2006-03-01,59.50413
2006-03-02,51.57025
2006-03-03,47.60331
2006-03-04,45.61983
2006-03-05,43.63636
2006-03-06,45.61983
2006-03-07,45.61983
2006-03-08,45.61983
2006-03-09,41.65289
2006-03-10,43.63636
2006-03-11,43.63636
2006-03-12,47.60331
2006-03-13,35.70248
2006-03-14,39.66942
2006-03-15,49.58678
2006-03-16,59.50413
2006-03-17,63.47107
2006-03-18,55.53719
2006-03-19,53.55372
2006-03-20,53.55372
2006-03-21,45.61983
2006-03-22,61.4876
2006-03-23,59.50413
2006-03-24,55.53719
2006-03-25,51.57025
2006-03-26,55.53719
2006-03-27,57.52066
2006-03-28,59.50413
2006-03-29,55.53719
2006-03-30,57.52066
2006-03-31,53.55372
2006-04-01,59.50413
2006-04-02,59.50413
2006-04-03,57.52066
2006-04-04,59.50413
2006-04-05,57.52066
2006-04-06,79.33884
2006-04-07,75.3719
2006-04-08,71.40496
2006-04-09,65.45455
2006-04-10,67.43802
2006-04-11,77.35537
2006-04-12,83.30579
2006-04-13,89.2562
2006-04-14,111.07438
2006-04-15,132.89256
2006-04-16,140.82645
2006-04-17,130.90909
2006-04-18,122.97521
2006-04-19,113.05785
2006-04-20,105.12397
2006-04-21,87.27273
2006-04-22,81.32231
2006-04-23,77.35537
2006-04-24,73.38843
2006-04-25,73.38843
2006-04-26,63.47107
2006-04-27,61.4876
2006-04-28,65.45455
2006-04-29,83.30579
2006-04-30,77.35537
2006-05-01,73.38843
2006-05-02,65.45455
2006-05-03,67.43802
2006-05-04,71.40496
2006-05-05,71.40496
2006-05-06,77.35537
2006-05-07,69.42149
2006-05-08,59.50413
2006-05-09,55.53719
2006-05-10,57.52066
2006-05-11,55.53719
2006-05-12,47.60331
2006-05-13,43.63636
2006-05-14,45.61983
2006-05-15,71.40496
2006-05-16,87.27273
2006-05-17,75.3719
2006-05-18,59.50413
2006-05-19,59.50413
2006-05-20,51.57025
2006-05-21,47.60331
2006-05-22,49.58678
2006-05-23,51.57025
2006-05-24,45.61983
2006-05-25,39.66942
2006-05-26,37.68595
2006-05-27,31.73554
2006-05-28,29.75207
2006-05-29,31.73554
2006-05-30,27.7686
2006-05-31,25.78512
2006-06-01,25.78512
2006-06-02,23.80165
2006-06-03,21.81818
2006-06-04,19.63636
2006-06-05,19.23967
2006-06-06,18.84298
2006-06-07,18.64463
2006-06-08,19.43802
2006-06-09,18.24793
2006-06-10,16.66116
2006-06-11,15.66942
2006-06-12,16.06612
2006-06-13,15.47107
2006-06-14,14.47934
2006-06-15,13.28926
2006-06-16,13.09091
2006-06-17,12.29752
2006-06-18,12.29752
2006-06-19,11.50413
2006-06-20,9.91736
2006-06-21,9.71901
2006-06-22,8.92562
2006-06-23,8.92562
2006-06-24,8.72727
2006-06-25,8.52893
2006-06-26,12.29752
2006-06-27,21.81818
2006-06-28,14.47934
2006-06-29,13.09091
2006-06-30,12.89256
2006-07-01,11.10744
2006-07-02,9.71901
2006-07-03,9.91736
2006-07-04,17.65289
2006-07-05,39.66942
2006-07-06,55.53719
2006-07-07,31.73554
2006-07-08,21.81818
2006-07-09,49.58678
2006-07-10,49.58678
2006-07-11,35.70248
2006-07-12,25.78512
2006-07-13,18.44628
2006-07-14,14.67769
2006-07-15,13.09091
2006-07-16,11.30579
2006-07-17,11.90083
2006-07-18,13.09091
2006-07-19,11.90083
2006-07-20,11.50413
2006-07-21,11.50413
2006-07-22,23.80165
2006-07-23,16.46281
2006-07-24,35.70248
2006-07-25,33.71901
2006-07-26,27.7686
2006-07-27,23.80165
2006-07-28,39.66942
2006-07-29,37.68595
2006-07-30,29.75207
2006-07-31,21.81818
2006-08-01,43.63636
2006-08-02,33.71901
2006-08-03,23.80165
2006-08-04,21.81818
2006-08-05,33.71901
2006-08-06,313.38843
2006-08-07,117.02479
2006-08-08,91.23967
2006-08-09,95.20661
2006-08-10,111.07438
2006-08-11,83.30579
2006-08-12,71.40496
2006-08-13,97.19008
2006-08-14,136.8595
2006-08-15,204.29752
2006-08-16,188.42975
2006-08-17,172.56198
2006-08-18,117.02479
2006-08-19,230.08264
2006-08-20,228.09917
2006-08-21,259.83471
2006-08-22,232.06612
2006-08-23,204.29752
2006-08-24,178.5124
2006-08-25,198.34711
2006-08-26,186.44628
2006-08-27,166.61157
2006-08-28,124.95868
2006-08-29,111.07438
2006-08-30,111.07438
2006-08-31,99.17355
2006-09-01,103.1405
2006-09-02,154.71074
2006-09-03,194.38017
2006-09-04,146.77686
2006-09-05,113.05785
2006-09-06,111.07438
2006-09-07,111.07438
2006-09-08,122.97521
2006-09-09,124.95868
2006-09-10,107.10744
2006-09-11,95.20661
2006-09-12,95.20661
2006-09-13,97.19008
2006-09-14,91.23967
2006-09-15,107.10744
2006-09-16,111.07438
2006-09-17,91.23967
2006-09-18,89.2562
2006-09-19,87.27273
2006-09-20,156.69421
2006-09-21,247.93388
2006-09-22,182.47934
2006-09-23,180.49587
2006-09-24,172.56198
2006-09-25,170.57851
2006-09-26,170.57851
2006-09-27,164.6281
2006-09-28,160.66116
2006-09-29,150.7438
2006-09-30,144.79339
2006-10-01,136.66116
2006-10-02,122.97521
2006-10-03,105.52066
2006-10-04,105.12397
2006-10-05,99.57025
2006-10-06,95.20661
2006-10-07,89.05785
2006-10-08,95.80165
2006-10-09,116.42975
2006-10-10,138.24793
2006-10-11,111.07438
2006-10-12,100.95868
2006-10-13,100.36364
2006-10-14,96.79339
2006-10-15,129.12397
2006-10-16,105.12397
2006-10-17,97.38843
2006-10-18,92.6281
2006-10-19,90.24793
2006-10-20,86.67769
2006-10-21,85.28926
2006-10-22,81.32231
2006-10-23,77.95041
2006-10-24,77.35537
2006-10-25,76.16529
2006-10-26,87.27273
2006-10-27,77.35537
2006-10-28,77.35537
2006-10-29,80.13223
2006-10-30,76.95868
2006-10-31,73.78512
2006-11-01,71.40496
2006-11-02,69.42149
2006-11-03,65.45455
2006-11-04,68.42975
2006-11-05,65.85124
2006-11-06,63.07438
2006-11-07,62.87603
2006-11-08,62.87603
2006-11-09,61.4876
2006-11-10,59.50413
2006-11-11,57.12397
2006-11-12,63.86777
2006-11-13,61.8843
2006-11-14,67.43802
2006-11-15,59.50413
2006-11-16,60.69421
2006-11-17,73.78512
2006-11-18,71.20661
2006-11-19,68.42975
2006-11-20,62.87603
2006-11-21,63.86777
2006-11-22,62.47934
2006-11-23,63.07438
2006-11-24,65.2562
2006-11-25,68.03306
2006-11-26,66.84298
2006-11-27,64.26446
2006-11-28,71.00826
2006-11-29,72.39669
2006-11-30,55.53719
2006-12-01,65.45455
2006-12-02,53.55372
2006-12-03,63.66942
2006-12-04,59.50413
2006-12-05,62.67769
2006-12-06,66.44628
2006-12-07,68.2314
2006-12-08,65.05785
2006-12-09,64.46281
2006-12-10,67.23967
2006-12-11,77.95041
2006-12-12,70.01653
2006-12-13,67.04132
2006-12-14,72.39669
2006-12-15,72.19835
2006-12-16,70.41322
2006-12-17,72.59504
2006-12-18,71.20661
2006-12-19,71.80165
2006-12-20,67.83471
2006-12-21,53.55372
2006-12-22,57.52066
2006-12-23,65.45455
2006-12-24,65.45455
2006-12-25,59.50413
2006-12-26,57.71901
2006-12-27,71.20661
2006-12-28,74.97521
2006-12-29,73.58678
2006-12-30,72.59504
2006-12-31,64.46281
2007-01-01,59.30579
2007-01-02,65.45455
2007-01-03,61.4876
2007-01-04,67.43802
2007-01-05,74.18182
2007-01-06,63.47107
2007-01-07,45.61983
2007-01-08,55.53719
2007-01-09,67.83471
2007-01-10,65.45455
2007-01-11,75.57025
2007-01-12,74.18182
2007-01-13,77.75207
2007-01-14,71.80165
2007-01-15,54.54545
2007-01-16,61.4876
2007-01-17,75.3719
2007-01-18,63.47107
2007-01-19,65.85124
2007-01-20,64.06612
2007-01-21,68.03306
2007-01-22,63.86777
2007-01-23,68.42975
2007-01-24,67.04132
2007-01-25,64.26446
2007-01-26,64.46281
2007-01-27,64.26446
2007-01-28,63.66942
2007-01-29,60.49587
2007-01-30,57.52066
2007-01-31,69.02479
2007-02-01,63.07438
2007-02-02,59.50413
2007-02-03,59.50413
2007-02-04,67.43802
2007-02-05,65.45455
2007-02-06,68.03306
2007-02-07,72.59504
2007-02-08,74.77686
2007-02-09,73.98347
2007-02-10,71.80165
2007-02-11,75.3719
2007-02-12,89.45455
2007-02-13,83.50413
2007-02-14,77.15702
2007-02-15,69.42149
2007-02-16,65.65289
2007-02-17,75.57025
2007-02-18,65.45455
2007-02-19,71.20661
2007-02-20,65.85124
2007-02-21,59.50413
2007-02-22,63.07438
2007-02-23,66.84298
2007-02-24,64.8595
2007-02-25,57.52066
2007-02-26,73.38843
2007-02-27,71.40496
2007-02-28,72.0
2007-03-01,57.52066
2007-03-02,61.4876
2007-03-03,71.40496
2007-03-04,69.42149
2007-03-05,77.35537
2007-03-06,75.57025
2007-03-07,85.4876
2007-03-08,94.41322
2007-03-09,97.19008
2007-03-10,100.95868
2007-03-11,97.98347
2007-03-12,96.0
2007-03-13,111.47107
2007-03-14,133.68595
2007-03-15,174.7438
2007-03-16,208.26446
2007-03-17,226.1157
2007-03-18,228.09917
2007-03-19,243.96694
2007-03-20,238.01653
2007-03-21,251.90083
2007-03-22,303.47107
2007-03-23,327.27273
2007-03-24,321.32231
2007-03-25,285.61983
2007-03-26,279.66942
2007-03-27,283.63636
2007-03-28,315.3719
2007-03-29,295.53719
2007-03-30,251.90083
2007-03-31,234.04959
2007-04-01,210.24793
2007-04-02,196.56198
2007-04-03,192.39669
2007-04-04,197.75207
2007-04-05,226.1157
2007-04-06,257.85124
2007-04-07,289.58678
2007-04-08,305.45455
2007-04-09,295.53719
2007-04-10,267.7686
2007-04-11,224.13223
2007-04-12,232.06612
2007-04-13,208.26446
2007-04-14,184.06612
2007-04-15,191.20661
2007-04-16,206.28099
2007-04-17,208.26446
2007-04-18,204.29752
2007-04-19,216.19835
2007-04-20,222.14876
2007-04-21,251.90083
2007-04-22,243.96694
2007-04-23,238.01653
2007-04-24,303.47107
2007-04-25,291.57025
2007-04-26,291.57025
2007-04-27,277.68595
2007-04-28,295.53719
2007-04-29,323.30579
2007-04-30,400.66116
2007-05-01,523.63636
2007-05-02,723.96694
2007-05-03,856.8595
2007-05-04,852.89256
2007-05-05,840.99174
2007-05-06,725.95041
2007-05-07,612.89256
2007-05-08,495.86777
2007-05-09,444.29752
2007-05-10,418.5124
2007-05-11,422.47934
2007-05-12,460.16529
2007-05-13,464.13223
2007-05-14,557.35537
2007-05-15,672.39669
2007-05-16,765.61983
2007-05-17,858.84298
2007-05-18,920.33058
2007-05-19,930.24793
2007-05-20,866.77686
2007-05-21,886.61157
2007-05-22,876.69421
2007-05-23,858.84298
2007-05-24,856.8595
2007-05-25,787.43802
2007-05-26,773.55372
2007-05-27,721.98347
2007-05-28,710.08264
2007-05-29,737.85124
2007-05-30,725.95041
2007-05-31,668.42975
2007-06-01,612.89256
2007-06-02,577.19008
2007-06-03,545.45455
2007-06-04,513.71901
2007-06-05,460.16529
2007-06-06,418.5124
2007-06-07,406.61157
2007-06-08,372.89256
2007-06-09,359.00826
2007-06-10,388.76033
2007-06-11,400.66116
2007-06-12,626.77686
2007-06-13,610.90909
2007-06-14,513.71901
2007-06-15,442.31405
2007-06-16,434.38017
2007-06-17,418.5124
2007-06-18,386.77686
2007-06-19,333.22314
2007-06-20,277.68595
2007-06-21,249.91736
2007-06-22,230.08264
2007-06-23,204.29752
2007-06-24,171.7686
2007-06-25,163.23967
2007-06-26,146.57851
2007-06-27,137.2562
2007-06-28,142.21488
2007-06-29,144.79339
2007-06-30,142.80992
2007-07-01,96.39669
2007-07-02,68.82645
2007-07-03,57.71901
2007-07-04,51.3719
2007-07-05,47.20661
2007-07-06,40.8595
2007-07-07,39.07438
2007-07-08,36.09917
2007-07-09,31.1405
2007-07-10,28.16529
2007-07-11,26.57851
2007-07-12,23.00826
2007-07-13,115.04132
2007-07-14,142.80992
2007-07-15,75.3719
2007-07-16,47.60331
2007-07-17,41.65289
2007-07-18,37.68595
2007-07-19,39.66942
2007-07-20,89.2562
2007-07-21,69.42149
2007-07-22,75.3719
2007-07-23,63.47107
2007-07-24,59.50413
2007-07-25,49.58678
2007-07-26,53.55372
2007-07-27,69.42149
2007-07-28,79.33884
2007-07-29,81.32231
2007-07-30,81.32231
2007-07-31,83.30579
2007-08-01,87.27273
2007-08-02,117.02479
2007-08-03,119.00826
2007-08-04,122.97521
2007-08-05,130.90909
2007-08-06,128.92562
2007-08-07,144.79339
2007-08-08,146.77686
2007-08-09,124.95868
2007-08-10,126.94215
2007-08-11,124.95868
2007-08-12,119.00826
2007-08-13,111.07438
2007-08-14,91.23967
2007-08-15,75.3719
2007-08-16,67.43802
2007-08-17,63.47107
2007-08-18,51.57025
2007-08-19,51.57025
2007-08-20,41.65289
2007-08-21,33.71901
2007-08-22,25.78512
2007-08-23,29.75207
2007-08-24,27.7686
2007-08-25,19.83471
2007-08-26,33.71901
2007-08-27,37.68595
2007-08-28,27.7686
2007-08-29,33.71901
2007-08-30,94.21488
2007-08-31,73.78512
2007-09-01,100.16529
2007-09-02,138.44628
2007-09-03,125.95041
2007-09-04,104.72727
2007-09-05,78.7438
2007-09-06,54.54545
2007-09-07,48.79339
2007-09-08,45.22314
2007-09-09,156.89256
2007-09-10,176.72727
2007-09-11,119.80165
2007-09-12,83.10744
2007-09-13,68.6281
2007-09-14,51.3719
2007-09-15,44.03306
2007-09-16,43.04132
2007-09-17,49.58678
2007-09-18,139.04132
2007-09-19,82.31405
2007-09-20,99.7686
2007-09-21,128.33058
2007-09-22,91.23967
2007-09-23,79.93388
2007-09-24,108.49587
2007-09-25,84.89256
2007-09-26,65.05785
2007-09-27,56.13223
2007-09-28,54.34711
2007-09-29,95.80165
2007-09-30,82.31405
2007-10-01,62.67769
2007-10-02,81.12397
2007-10-03,65.85124
2007-10-04,60.89256
2007-10-05,74.57851
2007-10-06,66.04959
2007-10-07,56.72727
2007-10-08,57.32231
2007-10-09,57.12397
2007-10-10,49.78512
2007-10-11,46.61157
2007-10-12,46.41322
2007-10-13,44.2314
2007-10-14,42.64463
2007-10-15,41.05785
2007-10-16,39.07438
2007-10-17,47.20661
2007-10-18,53.95041
2007-10-19,53.15702
2007-10-20,51.3719
2007-10-21,50.57851
2007-10-22,62.08264
2007-10-23,70.21488
2007-10-24,65.85124
2007-10-25,57.32231
2007-10-26,55.93388
2007-10-27,59.30579
2007-10-28,64.06612
2007-10-29,62.67769
2007-10-30,59.70248
2007-10-31,61.68595
2007-11-01,60.49587
2007-11-02,54.14876
2007-11-03,44.82645
2007-11-04,44.2314
2007-11-05,43.43802
2007-11-06,41.65289
2007-11-07,41.05785
2007-11-08,42.04959
2007-11-09,42.84298
2007-11-10,43.83471
2007-11-11,44.82645
2007-11-12,42.24793
2007-11-13,41.85124
2007-11-14,42.24793
2007-11-15,41.85124
2007-11-16,44.6281
2007-11-17,50.97521
2007-11-18,48.99174
2007-11-19,48.79339
2007-11-20,47.60331
2007-11-21,47.00826
2007-11-22,43.23967
2007-11-23,45.61983
2007-11-24,50.57851
2007-11-25,45.61983
2007-11-26,49.19008
2007-11-27,53.35537
2007-11-28,68.03306
2007-11-29,55.33884
2007-11-30,74.97521
2007-12-01,179.50413
2007-12-02,139.63636
2007-12-03,86.47934
2007-12-04,96.99174
2007-12-05,91.04132
2007-12-06,88.06612
2007-12-07,85.4876
2007-12-08,124.16529
2007-12-09,137.45455
2007-12-10,100.76033
2007-12-11,113.2562
2007-12-12,85.28926
2007-12-13,39.66942
2007-12-14,43.63636
2007-12-15,35.70248
2007-12-16,53.15702
2007-12-17,54.7438
2007-12-18,58.5124
2007-12-19,61.68595
2007-12-20,66.64463
2007-12-21,75.17355
2007-12-22,66.44628
2007-12-23,55.33884
2007-12-24,54.14876
2007-12-25,59.10744
2007-12-26,62.47934
2007-12-27,52.95868
2007-12-28,51.57025
2007-12-29,48.0
2007-12-30,52.76033
2007-12-31,58.31405
2008-01-01,27.7686
2008-01-02,17.85124
2008-01-03,23.80165
2008-01-04,56.72727
2008-01-05,65.2562
2008-01-06,78.94215
2008-01-07,84.29752
2008-01-08,73.78512
2008-01-09,68.03306
2008-01-10,74.77686
2008-01-11,65.05785
2008-01-12,49.58678
2008-01-13,43.63636
2008-01-14,58.5124
2008-01-15,60.69421
2008-01-16,60.29752
2008-01-17,29.75207
2008-01-18,52.36364
2008-01-19,51.57025
2008-01-20,53.35537
2008-01-21,51.57025
2008-01-22,52.76033
2008-01-23,52.16529
2008-01-24,52.76033
2008-01-25,54.94215
2008-01-26,53.95041
2008-01-27,55.93388
2008-01-28,79.1405
2008-01-29,65.65289
2008-01-30,58.31405
2008-01-31,61.68595
2008-02-01,61.28926
2008-02-02,63.27273
2008-02-03,64.26446
2008-02-04,65.05785
2008-02-05,64.46281
2008-02-06,39.66942
2008-02-07,49.58678
2008-02-08,67.43802
2008-02-09,62.87603
2008-02-10,64.66116
2008-02-11,67.83471
2008-02-12,69.22314
2008-02-13,69.61983
2008-02-14,79.1405
2008-02-15,82.5124
2008-02-16,79.73554
2008-02-17,76.76033
2008-02-18,71.40496
2008-02-19,69.81818
2008-02-20,69.81818
2008-02-21,69.42149
2008-02-22,68.2314
2008-02-23,69.42149
2008-02-24,68.2314
2008-02-25,78.14876
2008-02-26,72.79339
2008-02-27,69.42149
2008-02-28,81.91736
2008-02-29,91.23967
2008-03-01,104.13223
2008-03-02,120.99174
2008-03-03,94.41322
2008-03-04,89.85124
2008-03-05,94.61157
2008-03-06,87.27273
2008-03-07,81.91736
2008-03-08,86.28099
2008-03-09,83.30579
2008-03-10,77.55372
2008-03-11,77.15702
2008-03-12,82.31405
2008-03-13,103.33884
2008-03-14,108.29752
2008-03-15,103.93388
2008-03-16,110.47934
2008-03-17,112.26446
2008-03-18,107.50413
2008-03-19,107.90083
2008-03-20,120.59504
2008-03-21,130.90909
2008-03-22,139.23967
2008-03-23,141.22314
2008-03-24,141.61983
2008-03-25,164.82645
2008-03-26,195.7686
2008-03-27,230.08264
2008-03-28,255.86777